This is the latest recevied weather packets stored in our database for station/object K8JCL-13. If no packets are shown the sender has not sent any weather packets the latest 1 day(s).
| Time | Temp. | Humidity | Pressure | Rain* | Wind** | Luminosity | Snow |
|---|---|---|---|---|---|---|---|
| 1777995248 | 19.44° C | 79% | 1009.1 hPa | 0 mm | 0.45 m/s, 323° | 282 W/m² | - |
| 1777994944 | 19.44° C | 80% | 1009.2 hPa | 0 mm | 0.89 m/s, 324° | 291 W/m² | - |
| 1777994641 | 19.44° C | 81% | 1009.2 hPa | 0 mm | 0.45 m/s, 304° | 295 W/m² | - |
| 1777994335 | 19.44° C | 81% | 1009.5 hPa | 0 mm | 0 m/s | 288 W/m² | - |
| 1777994033 | 19.44° C | 81% | 1009.2 hPa | 0 mm | 0 m/s | 266 W/m² | - |
| 1777993729 | 20° C | 81% | 1009.3 hPa | 0 mm | 0 m/s | 284 W/m² | - |
| 1777993426 | 20° C | 82% | 1009.3 hPa | 0 mm | 0 m/s | 303 W/m² | - |
| 1777993121 | 19.44° C | 82% | 1009.3 hPa | 0 mm | 0 m/s | 353 W/m² | - |
| 1777992819 | 19.44° C | 81% | 1009.1 hPa | 0 mm | 0.45 m/s, 53° | 399 W/m² | - |
| 1777992516 | 18.89° C | 84% | 1009.2 hPa | 0 mm | 0 m/s | 383 W/m² | - |
| 1777992215 | 18.89° C | 84% | 1009.1 hPa | 0 mm | 0 m/s | 334 W/m² | - |
| 1777991912 | 18.33° C | 85% | 1009 hPa | 0 mm | 0 m/s | 358 W/m² | - |
| 1777991609 | 18.33° C | 85% | 1008.7 hPa | 0 mm | 0.45 m/s, 118° | 189 W/m² | - |
| 1777991306 | 18.33° C | 85% | 1008.9 hPa | 0 mm | 0.45 m/s, 48° | 265 W/m² | - |
| 1777991004 | 17.78° C | 87% | 1008.6 hPa | 0 mm | 0 m/s | 344 W/m² | - |
| 1777990701 | 18.33° C | 87% | 1009 hPa | 0 mm | 0.45 m/s, 137° | 295 W/m² | - |
| 1777990398 | 17.78° C | 88% | 1009.2 hPa | 0 mm | 0 m/s | 323 W/m² | - |
| 1777990094 | 17.78° C | 90% | 1008.7 hPa | 0 mm | 0 m/s | 328 W/m² | - |
| 1777989791 | 17.78° C | 90% | 1009 hPa | 0 mm | 0 m/s | 195 W/m² | - |
| 1777989488 | 17.78° C | 89% | 1008.4 hPa | 0 mm | 0.45 m/s, 101° | 292 W/m² | - |
| 1777989184 | 17.22° C | 91% | 1008.3 hPa | 0 mm | 0.45 m/s, 65° | 302 W/m² | - |
| 1777988880 | 16.67° C | 93% | 1008.3 hPa | 0 mm | 0 m/s | 303 W/m² | - |
| 1777988578 | 16.11° C | 95% | 1008.4 hPa | 0 mm | 0 m/s | 259 W/m² | - |
| 1777988274 | 15.56° C | 97% | 1008.3 hPa | 0 mm | 0 m/s | 245 W/m² | - |
| 1777987971 | 15° C | 97% | 1008.2 hPa | 0 mm | 0 m/s | 137 W/m² | - |
* Rain latest hour (hover to see other rain measurements)
** Current wind speed in m/s (hover to see current wind gust speed)